Terug naar catalogus

DELTA 1 DEB

ActiefSSO
NORAD 7136·DEBRIS·🇺🇸 United States

Gelanceerd Nov 6, 1973 vanaf Vandenberg Space Force Base

Loading…

Volgende Passages (komende 24 uur)

TLE

VersSource: Space-Track

Epoch: Sep 14, 2026, 04:49 UTC

1 07136U 73086DA  26257.20089456  .00000080  00000-0  77525-3 0  9994
2 07136 101.6052 233.4330 0043677 276.9631  96.8929 12.53977089412655

Volg DELTA 1 DEB in realtime met AllMySat

Download on the App Store